SB KEPS @ AMSAT $ORB25354.1 2Line Orbital Elements 25354.AMSAT QST de W1STR AMSAT Orbital Elements for Amateur Satellites in TLE Format From Orbital Analysis Office New England Sci-Tech STEM Education Center Natick MA December 20, 2025 To all radio amateurs These element sets describe the orbits of various satellites in use by the amateur radio community. For details see: www.amsat.org/keplerian-elements-formats/ A daily update of element sets is available at: www.amsat.org/tle/daily-bulletin.txt or without bulletin text: www.amsat.org/tle/dailytle.txt AO-07 1 07530U 74089B 25353.85069855 -.00000037 00000-0 59616-4 0 9999 2 07530 101.9963 0.1931 0012385 113.2137 9.1993 12.53694381338048 UO-11 1 14781U 84021B 25353.84397384 .00001185 00000-0 12799-3 0 9996 2 14781 97.7820 316.7623 0009116 62.3801 297.8342 14.90163489230411 AO-27 1 22825U 93061C 25353.64169227 .00000096 00000-0 53797-4 0 9993 2 22825 98.7137 55.9252 0007307 266.4784 93.5562 14.30879143681328 FO-29 1 24278U 96046B 25353.20552664 -.00000035 00000-0 11478-5 0 9991 2 24278 98.5459 221.4730 0349439 203.1787 155.3258 13.53262932448825 GO-32 1 25397U 98043D 25353.23960095 .00000059 00000-0 45722-4 0 9990 2 25397 98.9925 336.6018 0001867 47.1475 312.9859 14.24378852425717 ISS 1 25544U 98067A 25353.44148582 .00006778 00000-0 12809-3 0 9995 2 25544 51.6317 109.2912 0003173 271.3280 88.7345 15.49667075543890 NO-44 1 26931U 01043C 25353.37197271 .00000116 00000-0 74296-4 0 9994 2 26931 67.0515 349.3269 0007420 269.6286 90.3965 14.31858315264705 SO-50 1 27607U 02058C 25353.21431345 .00001457 00000-0 19179-3 0 9995 2 27607 64.5532 325.5870 0072510 295.3542 64.0067 14.82416051237775 CO-55 1 27844U 03031E 25353.82631338 .00000274 00000-0 13775-3 0 9993 2 27844 98.6762 359.6379 0009414 353.0226 7.0821 14.24185021166140 CO-57 1 27848U 03031J 25353.44482588 .00000234 00000-0 12209-3 0 9993 2 27848 98.6791 359.1180 0009673 12.1508 347.9902 14.23492007165806 RS-22 1 27939U 03042A 25353.85709647 .00000978 00000-0 16050-3 0 9992 2 27939 98.3358 168.2460 0012325 114.6626 22.5198 14.72988994189145 CO-58 1 28895U 05043F 25353.37555023 .00001244 00000-0 20666-3 0 9996 2 28895 98.2728 140.5657 0015190 58.5337 301.7351 14.71922883 75293 CO-65 1 32785U 08021C 25351.68477250 .00005656 00000-0 38073-3 0 9997 2 32785 97.8081 324.8433 0007829 290.5969 69.4418 15.07103756957832 CO-66 1 32791U 08021J 25353.46349815 .00012670 00000-0 50331-3 0 9992 2 32791 97.7441 338.8410 0002130 175.3833 184.7424 15.25467941959826 RS-30 1 32953U 08025A 25353.79268938 -.00000072 00000-0 -59028-3 0 9995 2 32953 82.5025 107.0367 0018731 345.4795 14.5745 12.43171731797400 SRMSAT 1 37841U 11058D 25353.61177772 .00000383 00000-0 64258-4 0 9997 2 37841 19.9723 66.3596 0011928 29.0252 120.8933 14.11513672732416 ZACUBE-1 1 39417U 13066B 25351.39749824 .00003280 00000-0 27002-3 0 9999 2 39417 97.8056 307.9496 0042001 132.1904 228.2897 14.99124350653477 Delfi-N3xt 1 39428U 13066N 25353.51551279 .00005707 00000-0 53505-3 0 9995 2 39428 97.8354 269.3753 0081064 83.4277 277.6162 14.91912166647805 GOMX-1 1 39430U 13066Q 25353.85122672 .00001953 00000-0 30401-3 0 9995 2 39430 97.6584 200.5319 0129225 293.6053 65.1628 14.68618026643585 LO-74 1 39440U 13066AA 25351.56788106 .00003439 00000-0 33426-3 0 9993 2 39440 97.8708 295.2332 0058016 269.4523 90.0047 14.92015584649893 AO-73 1 39444U 13066AE 25353.63143087 .00005792 00000-0 39366-3 0 9993 2 39444 97.8077 316.9945 0041135 93.3798 267.2135 15.06063041652605 DTUSAT-2 1 40030U 14033W 25351.70002679 .00007073 00000-0 41774-3 0 9998 2 40030 98.0754 333.4459 0009697 125.2587 234.9550 15.11812878625232 EO-80 1 40032U 14033Y 25353.76206488 .00006410 00000-0 37784-3 0 9992 2 40032 98.0641 335.0076 0009767 70.1817 290.0464 15.11927088625523 LILACSAT-2 1 40908U 15049K 25353.86136551 .00011248 00000-0 24080-3 0 9996 2 40908 97.4900 19.4635 0008009 170.6709 189.4690 15.44927461568006 IO-86 1 40931U 15052B 25151.18580175 .00001241 00000-0 78118-4 0 9996 2 40931 6.0006 24.0987 0012733 338.8432 21.1169 14.78805930523159 Horyu-4 1 41340U 16012D 25353.44060457 .00038048 00000-0 62322-3 0 9991 2 41340 30.9940 263.9528 0006847 298.9646 61.0317 15.51187828542592 Lapan A3 1 41603U 16040E 25353.88158102 .00002727 00000-0 91687-4 0 9999 2 41603 97.1423 351.1781 0008994 304.9457 55.0940 15.31605625527359 CAS-2T 1 41847U 16066G 25353.82855280 .00000809 00000-0 12439-3 0 9998 2 41847 98.4031 66.5000 0342784 313.6331 43.6891 14.44146623478900 TechnoSat 1 42829U 17042E 25353.45059574 .00002767 00000-0 20680-3 0 9997 2 42829 97.4052 153.3681 0017875 352.6481 7.4480 15.03463352459685 AO-91 1 43017U 17073E 25353.07726365 .00007845 00000-0 37160-3 0 9991 2 43017 97.4940 219.1298 0159297 228.4685 130.2789 15.08989957438196 S-Net D 1 43186U 18014G 25353.22935531 .00004482 00000-0 24745-3 0 9997 2 43186 97.5494 254.2652 0006948 286.7972 73.2497 15.14426292431507 S-Net B 1 43187U 18014H 25353.63396183 .00003973 00000-0 21989-3 0 9998 2 43187 97.5500 254.6471 0007496 279.0094 81.0290 15.14405547431562 S-Net A 1 43188U 18014J 25353.69154808 .00004395 00000-0 24265-3 0 9990 2 43188 97.5507 254.8817 0007426 279.6963 80.3430 15.14436453431579 S-Net C 1 43189U 18014K 25353.24050068 .00004088 00000-0 22614-3 0 9990 2 43189 97.5525 254.4807 0008773 272.2026 87.8201 15.14397450430053 Ten-Koh 1 43677U 18084G 25353.44087403 .00002212 00000-0 17436-3 0 9997 2 43677 98.0745 173.3326 0009022 6.5240 353.6099 15.01857808389173 PO-101 1 43678U 18084H 25353.85912619 .00002679 00000-0 22354-3 0 9991 2 43678 98.1021 177.6079 0007654 28.4525 331.7113 14.99473535389331 QO-100 1 43700U 18090A 25353.62916108 .00000169 00000-0 00000+0 0 9998 2 43700 0.0156 30.8445 0000966 258.7498 51.1765 1.00271917 25871 MinXSS-2 1 43758U 18099A 25353.14505923 .00021283 00000-0 63070-3 0 9996 2 43758 97.4793 60.5979 0009362 188.0893 172.0200 15.34833113386406 AO-95 1 43770U 18099N 25353.10461186 .00010084 00000-0 44381-3 0 9999 2 43770 97.4671 49.3405 0008260 260.2802 99.7501 15.22022791385781 SNUSat 2 1 43782U 18099AA 25353.11733939 .00006997 00000-0 34313-3 0 9993 2 43782 97.4346 44.4147 0010577 198.3316 161.7538 15.18381870385676 SnugLite 1 43784U 18099AC 25353.41875653 .00009143 00000-0 39829-3 0 9991 2 43784 97.4161 44.7821 0002869 174.7228 185.4039 15.22424895385927 ITASat 1 1 43786U 18099AE 25353.62791102 .00005881 00000-0 30763-3 0 9995 2 43786 97.4315 43.7960 0011934 256.7271 103.2632 15.16167324385678 EAGLET 1 1 43790U 18099AJ 25353.12787171 .00003440 00000-0 20855-3 0 9996 2 43790 97.4518 42.5013 0010038 244.2891 115.7303 15.11173048385126 ESEO 1 43792U 18099AL 25353.53675252 .00002183 00000-0 16420-3 0 9995 2 43792 97.4223 33.4425 0011519 222.9460 137.0868 15.03507563384808 JO-97 1 43803U 18099AX 25353.43435815 .00012067 00000-0 45701-3 0 9992 2 43803 97.4415 51.2298 0006419 176.9567 183.1712 15.27043751386137 Suomi 100 1 43804U 18099AY 25353.61818933 .00008912 00000-0 37603-3 0 9995 2 43804 97.4479 50.0258 0010790 186.6093 173.5003 15.23470530386030 ISAT 1 43879U 18111D 25353.68008470 .00026602 00000-0 61832-3 0 9993 2 43879 97.5918 273.6582 0004029 211.2704 148.8304 15.42308862383312 UWE-4 1 43880U 18111E 25353.21927691 .00017452 00000-0 52029-3 0 9990 2 43880 97.5865 269.9239 0007271 246.6380 113.4098 15.34706356383078 Sparrow 1 43881U 18111F 25353.26562205 .00033768 00000-0 72522-3 0 9990 2 43881 97.6103 277.0215 0001923 289.5361 70.5679 15.44623778383370 Prox-1 1 44339U 19036A 25353.02313865 .00011066 00000-0 12251-2 0 9995 2 44339 23.9949 233.1519 0006503 112.3836 247.7351 14.85340321346602 Taurus 1 1 44530U 19059C 25353.71790058 .00006677 00000-0 11401-2 0 9990 2 44530 98.6222 142.9561 0009198 153.3018 206.8661 14.69255504332269 TO-108 1 44881U 19093C 25353.83759819 .00001469 00000-0 17350-3 0 9994 2 44881 97.7759 65.3109 0012778 322.2141 37.8176 14.86120789324776 FloripaSat 1 1 44885U 19093G 25353.84201208 .00004816 00000-0 37820-3 0 9996 2 44885 97.8044 82.0694 0009742 312.2343 47.8054 15.01353890325713 RS-44 1 44909U 19096E 25353.81587961 .00000011 00000-0 13209-5 0 9996 2 44909 82.5215 98.9070 0217299 203.5078 155.5976 12.79746120279408 SALSAT 1 46495U 20068K 25353.48061531 .00006196 00000-0 24069-3 0 9996 2 46495 97.8779 341.1169 0009485 202.4725 157.6098 15.26432785287916 CSS (TIANHE-1) 1 48274U 21035A 25353.82384830 .00017215 00000-0 21455-3 0 9996 2 48274 41.4685 333.6904 0007721 93.5896 266.5825 15.59477227265130 TUBIN 1 48900U 21059X 25349.78845228 .07315651 27141-5 56139-3 0 9990 2 48900 97.6553 178.8839 0007270 265.1302 94.9166 16.40417761249824 CUTE 1 49263U 21088D 25353.64371309 .00021111 00000-0 27262-3 0 9992 2 49263 97.4349 76.8036 0004562 237.9346 122.1467 15.58983994234376 TeikyoSat 4 1 49396U 21102B 25352.63779598 .00002222 00000-0 14549-3 0 9992 2 49396 97.3892 24.0158 0011990 187.1020 173.0041 15.08669848225493 Z-Sat 1 49399U 21102E 25353.83755091 .00003990 00000-0 20738-3 0 9990 2 49399 97.3574 29.5674 0017974 148.1936 212.0386 15.16499304226244 KOSEN 1 1 49402U 21102H 25353.07351674 .00006715 00000-0 28153-3 0 9997 2 49402 97.3462 33.8321 0016116 120.7393 239.5434 15.23711085226566 HO-113 1 50466U 21131B 25353.87091624 .00000446 00000-0 15230-3 0 9992 2 50466 98.5055 82.2570 0003066 278.6671 81.4170 14.41121050209282 SNUGLITE 2 1 52899U 22065F 25353.84265959 .00000897 00000-0 18084-3 0 9992 2 52899 98.1931 134.3355 0006779 220.1603 139.9099 14.63854355184752 UmKA 1 (RS40S) 1 57172U 23091G 25353.79442297 .00004528 00000-0 22392-3 0 9999 2 57172 97.5334 48.2288 0014195 30.5500 329.6557 15.18257482136763 CubeBel-2 (EU11S) 1 57175U 23091K 25353.81167042 .00008618 00000-0 35592-3 0 9997 2 57175 97.5333 50.7970 0011586 33.6241 326.5729 15.24202451136937 RS-38S 1 57189U 23091Z 25353.83722977 .00010613 00000-0 37261-3 0 9991 2 57189 97.5360 55.3343 0008119 358.7358 1.3860 15.29564847137216 SONATE-2 1 59112U 24043Q 25353.38765801 .00021337 00000-0 44678-3 0 9995 2 59112 97.5333 129.8886 0009209 138.6515 221.5432 15.45419874100009 MO-122 1 60209U 24125G 25353.38851846 .00024860 00000-0 49732-3 0 9990 2 60209 97.2515 203.7669 0014663 153.5645 206.6356 15.46648126 81639 GRBBeta 1 60237U 24128C 25353.72861954 .00003635 00000-0 26244-3 0 9993 2 60237 61.9900 125.1047 0056027 97.9490 262.7965 15.04822732 79246 Curium One 1 60242U 24128H 25353.62112780 .00007287 00000-0 45560-3 0 9993 2 60242 61.9796 120.1942 0055619 94.4909 266.2542 15.09014436 79325 ROBUSTA-3A 1 60243U 24128J 25353.36242161 .00006205 00000-0 39758-3 0 9993 2 60243 61.9864 122.6681 0055828 92.1691 268.5797 15.08315265 79267 CatSat 1 60246U 24125J 25353.55892015 .00026538 00000-0 63078-3 0 9996 2 60246 97.2302 200.8719 0034352 120.0734 240.3927 15.41006410 79571 HYPERVIEW-1G (RS66S) 1 61772U 24199AP 25353.85277307 .00031221 00000-0 58892-3 0 9999 2 61772 97.3203 223.3794 0008296 204.9644 155.1206 15.48389230106711 AO-123 1 61781U 24199AY 25353.85732358 .00007957 00000-0 25862-3 0 9991 2 61781 97.3245 219.2297 0013060 226.9858 133.0290 15.32092966106432 ZIMSAT 2 1 61783U 24199BA 25353.53009689 .00207553 00000-0 12962-2 0 9992 2 61783 97.3076 226.8459 0004892 157.8032 202.3446 15.76266785110077 HADES-R (SO-124) 1 62690U 25009CK 25353.50180803 .00139512 00000-0 16338-2 0 9996 2 62690 97.3864 76.3943 0001150 263.7674 96.3452 15.61075237 51839 HYDRA-T 1 62692U 25009CM 25353.47142805 .00154374 00000-0 16565-2 0 9999 2 62692 97.3861 76.5858 0001604 276.0374 84.0702 15.63290951 51840 JINJUSat 1B 1 63210U 25052A 25353.14274451 .00012621 00000-0 48019-3 0 9999 2 63210 97.4208 245.2587 0004952 30.9085 329.2445 15.26887237 42567 NUSHSAT 1 1 63211U 25052B 25353.46103451 .00014371 00000-0 52846-3 0 9993 2 63211 97.4189 245.7058 0005015 33.7049 326.4508 15.27983213 42624 TEVEL2-4 1 63213U 25052D 25353.66143486 .00012588 00000-0 47301-3 0 9997 2 63213 97.4108 245.4430 0004702 48.0549 312.1091 15.27299696 42640 TEVEL2-5 1 63214U 25052E 25353.66723738 .00012195 00000-0 45943-3 0 9996 2 63214 97.4106 245.4353 0004690 48.6434 311.5207 15.27223416 42647 TEVEL2-6 1 63215U 25052F 25353.67475926 .00011743 00000-0 44316-3 0 9992 2 63215 97.4107 245.4309 0004776 47.9549 312.2096 15.27175954 42641 TEVEL2-1 1 63217U 25052H 25352.67033598 .00014195 00000-0 54071-3 0 9991 2 63217 97.4083 244.2394 0005167 58.6972 301.4772 15.26817329 42482 TEVEL2-3 1 63218U 25052J 25353.65249480 .00012128 00000-0 46185-3 0 9991 2 63218 97.4085 245.2198 0005203 56.5864 303.5872 15.26864723 42637 TEVEL2-2 1 63219U 25052K 25353.19539921 .00013194 00000-0 50263-3 0 9999 2 63219 97.4084 244.7608 0005156 58.0109 302.1631 15.26832185 42560 TEVEL2-9 1 63237U 25052AD 25353.16480731 .00012752 00000-0 50799-3 0 9993 2 63237 97.4146 244.4275 0009185 64.2665 295.9520 15.25322962 42526 TEVEL2-7 1 63238U 25052AE 25353.63862220 .00011104 00000-0 44475-3 0 9997 2 63238 97.4148 244.8700 0009277 63.0195 297.1989 15.25177809 42591 TEVEL2-8 1 63239U 25052AF 25353.44754769 .00011990 00000-0 48035-3 0 9994 2 63239 97.4150 244.6651 0009268 63.6438 296.5750 15.25147399 42561 HYDRA-W 1 63490U 25052BL 25352.21863947 .00068284 00000-0 15821-2 0 9990 2 63490 97.4067 246.0800 0011289 57.9505 302.2837 15.42123797 42562 HADES-ICM (SO-125) 1 63492U 25052BN 25351.96064983 .00050303 00000-0 12519-2 0 9990 2 63492 97.4082 245.5345 0011625 61.2981 298.9432 15.40039410 42501 Dragonfly 1 65729U 98067XH 25353.59934995 .00144123 00000-0 96899-3 0 9999 2 65729 51.6251 100.5779 0007280 320.5398 39.5070 15.74182800 14248 RSP-03 1 65732U 98067XL 25353.42469933 .00106087 00000-0 84699-3 0 9992 2 65732 51.6265 102.4221 0005658 294.5755 65.4652 15.70283101 14217 GHS-01 1 65733U 98067XM 25353.72697633 .00188446 00000-0 10728-2 0 9996 2 65733 51.6273 99.1864 0008343 325.0318 35.0134 15.77819432 14285 BOTAN 1 65942U 98067XP 25353.36522579 .00083736 00000-0 85845-3 0 9993 2 65942 51.6281 105.7870 0002893 295.6773 64.3923 15.64228558 10903 BEE-1000 1 66650U 25274A 25353.52753957 .00000973 00000-0 10224-3 0 9995 2 66650 97.7401 280.5907 0010694 226.1332 133.9004 14.91682536 3416 SPIRONE 1 66657U 25274H 25353.71688294 .00001468 00000-0 14841-3 0 9993 2 66657 97.7400 280.8026 0010762 249.6730 110.3333 14.92491265 3440 K-HERO 1 66660U 25274L 25353.37393786 .00001653 00000-0 16428-3 0 9997 2 66660 97.7404 280.4848 0012565 256.3531 103.6289 14.92997006 3396 SNUGLITE-III DURI 1 66661U 25274M 25353.17068803 .00001781 00000-0 17600-3 0 9990 2 66661 97.7404 280.2891 0013162 258.3586 101.6156 14.93131354 3364 SilverSat 1 66909U 98067XV 25353.55080352 .00049748 00000-0 79912-3 0 9999 2 66909 51.6306 108.5226 0003839 268.6960 91.3590 15.52516520 2671 CEVROSAT1 1 98526U 25248E 25313.13142326 .00000000 00000-0 19360-3 0 02 2 98526 45.4084 218.4764 0001315 254.8982 242.1062 15.17981583 02 /EX